Location: Castle
(40.7167°S, 175.9500°E)
Time: 18:37:23
(UTC+00:00)

Helios 1B rocket - Pass Details

Date: 04 August 2024
Orbit: 525 x 536 km, 98.2° (Epoch: 17 September)

Event Time Altitude Azimuth Distance (km) Brightness Sun altitude
Rises 18:28:14 0° 19° (NNE) 2,676 6.3 -9.9°
Reaches altitude 10° 18:30:20 10° 21° (NNE) 1,791 5.5 -9.5°
Maximum altitude 18:34:11 71° 105° (ESE) 573 2.6 -8.8°
Drops below altitude 10° 18:38:04 10° 189° (S) 1,808 4.7 -8.1°
Sets 18:40:12 0° 190° (S) 2,705 5.6 -7.7°
